Time,TemperatureF,DewpointF,PressureIn,WindDirection,WindDirectionDegrees,WindSpeedMPH,WindSpeedGustMPH,Humidity,HourlyPrecipIn,Conditions,Clouds,dailyrainin,SoftwareType,DateUTC
2013-05-27 00:03:00,61.0,55.0,30.22,South,178,0.0,-999.0,81,-99.99,,,-99.99,,2013-05-27 04:03:00,
2013-05-27 00:12:00,60.0,54.0,30.22,South,178,0.0,-999.0,81,-99.99,,,-99.99,,2013-05-27 04:12:00,
2013-05-27 00:23:00,60.0,54.0,30.22,South,178,0.0,-999.0,81,-99.99,,,-99.99,,2013-05-27 04:23:00,
2013-05-27 00:33:00,60.0,54.0,30.22,South,178,0.0,-999.0,82,-99.99,,,-99.99,,2013-05-27 04:33:00,
2013-05-27 00:43:00,60.0,54.0,30.22,South,178,0.0,-999.0,82,-99.99,,,-99.99,,2013-05-27 04:43:00,
2013-05-27 00:52:00,60.0,54.0,30.22,South,178,0.0,-999.0,82,-99.99,,,-99.99,,2013-05-27 04:52:00,
2013-05-27 01:02:00,60.0,55.0,30.22,South,178,0.0,-999.0,83,-99.99,,,-99.99,,2013-05-27 05:02:00,
2013-05-27 01:12:00,60.0,55.0,30.22,South,178,0.0,-999.0,83,-99.99,,,-99.99,,2013-05-27 05:12:00,
2013-05-27 01:22:00,59.0,54.0,30.22,South,178,0.0,-999.0,84,-99.99,,,-99.99,,2013-05-27 05:22:00,
2013-05-27 01:32:00,59.0,54.0,30.22,South,178,0.0,-999.0,85,-99.99,,,-99.99,,2013-05-27 05:32:00,
2013-05-27 01:42:00,59.0,54.0,30.22,South,178,0.0,-999.0,85,-99.99,,,-99.99,,2013-05-27 05:42:00,
2013-05-27 01:52:00,59.0,55.0,30.22,South,178,0.0,-999.0,86,-99.99,,,-99.99,,2013-05-27 05:52:00,
2013-05-27 02:02:00,59.0,55.0,30.22,South,178,0.0,-999.0,86,-99.99,,,-99.99,,2013-05-27 06:02:00,
2013-05-27 02:11:00,59.0,55.0,30.22,South,178,0.0,-999.0,86,-99.99,,,-99.99,,2013-05-27 06:11:00,
2013-05-27 02:22:00,59.0,55.0,30.22,South,178,0.0,-999.0,87,-99.99,,,-99.99,,2013-05-27 06:22:00,
2013-05-27 02:32:00,59.0,55.0,30.22,South,178,0.0,-999.0,87,-99.99,,,-99.99,,2013-05-27 06:32:00,
2013-05-27 02:42:00,59.0,56.0,30.22,South,178,0.0,-999.0,89,-99.99,,,-99.99,,2013-05-27 06:42:00,
2013-05-27 02:52:00,59.0,56.0,30.22,South,178,0.0,-999.0,89,-99.99,,,-99.99,,2013-05-27 06:52:00,
2013-05-27 03:02:00,59.0,56.0,30.22,South,178,0.0,-999.0,89,-99.99,,,-99.99,,2013-05-27 07:02:00,
2013-05-27 03:11:00,59.0,56.0,30.22,South,178,0.0,-999.0,89,-99.99,,,-99.99,,2013-05-27 07:11:00,
2013-05-27 03:21:00,59.0,56.0,30.22,South,178,0.0,-999.0,89,-99.99,,,-99.99,,2013-05-27 07:21:00,
2013-05-27 03:32:00,58.0,55.0,30.22,South,178,0.0,-999.0,90,-99.99,,,-99.99,,2013-05-27 07:32:00,
2013-05-27 03:42:00,58.0,55.0,30.22,South,178,0.0,-999.0,90,-99.99,,,-99.99,,2013-05-27 07:42:00,
2013-05-27 03:52:00,58.0,55.0,30.22,North,8,0.0,-999.0,90,-99.99,,,-99.99,,2013-05-27 07:52:00,
2013-05-27 04:02:00,58.0,55.0,30.22,South,178,0.0,-999.0,90,-99.99,,,-99.99,,2013-05-27 08:02:00,
2013-05-27 04:11:00,58.0,55.0,30.22,South,178,0.0,-999.0,90,-99.99,,,-99.99,,2013-05-27 08:11:00,
2013-05-27 04:22:00,58.0,55.0,30.22,South,178,0.0,-999.0,90,-99.99,,,-99.99,,2013-05-27 08:22:00,
2013-05-27 04:33:00,58.0,55.0,30.22,South,178,0.0,-999.0,91,-99.99,,,-99.99,,2013-05-27 08:33:00,
2013-05-27 04:42:00,58.0,55.0,30.22,South,178,0.0,-999.0,91,-99.99,,,-99.99,,2013-05-27 08:42:00,
2013-05-27 04:52:00,58.0,55.0,30.22,South,178,0.0,-999.0,91,-99.99,,,-99.99,,2013-05-27 08:52:00,
2013-05-27 05:02:00,58.0,55.0,30.22,South,178,0.0,-999.0,91,-99.99,,,-99.99,,2013-05-27 09:02:00,
2013-05-27 05:11:00,57.0,54.0,30.22,South,178,0.0,-999.0,91,-99.99,,,-99.99,,2013-05-27 09:11:00,
2013-05-27 05:22:00,57.0,54.0,30.22,South,178,0.0,-999.0,91,-99.99,,,-99.99,,2013-05-27 09:22:00,
2013-05-27 05:33:00,57.0,55.0,30.22,South,178,0.0,-999.0,92,-99.99,,,-99.99,,2013-05-27 09:33:00,
2013-05-27 05:42:00,57.0,55.0,30.22,South,178,0.0,-999.0,92,-99.99,,,-99.99,,2013-05-27 09:42:00,
2013-05-27 05:53:00,57.0,55.0,30.23,South,178,0.0,-999.0,92,-99.99,,,-99.99,,2013-05-27 09:53:00,
2013-05-27 06:03:00,57.0,55.0,30.23,South,178,0.0,-999.0,92,-99.99,,,-99.99,,2013-05-27 10:03:00,
2013-05-27 06:12:00,57.0,55.0,30.23,South,178,0.0,-999.0,92,-99.99,,,-99.99,,2013-05-27 10:12:00,
2013-05-27 06:22:00,58.0,56.0,30.23,South,178,0.0,-999.0,93,-99.99,,,-99.99,,2013-05-27 10:22:00,
2013-05-27 06:32:00,58.0,56.0,30.23,South,178,0.0,-999.0,93,-99.99,,,-99.99,,2013-05-27 10:32:00,
2013-05-27 06:42:00,58.0,56.0,30.23,South,178,0.0,-999.0,93,-99.99,,,-99.99,,2013-05-27 10:42:00,
2013-05-27 06:52:00,58.0,56.0,30.24,South,178,0.0,-999.0,93,-99.99,,,-99.99,,2013-05-27 10:52:00,
2013-05-27 07:02:00,59.0,57.0,30.24,South,178,0.0,-999.0,93,-99.99,,,-99.99,,2013-05-27 11:02:00,
2013-05-27 07:11:00,59.0,57.0,30.24,South,178,0.0,-999.0,93,-99.99,,,-99.99,,2013-05-27 11:11:00,
2013-05-27 07:22:00,59.0,57.0,30.25,South,178,0.0,-999.0,94,-99.99,,,-99.99,,2013-05-27 11:22:00,
2013-05-27 07:32:00,61.0,59.0,30.25,South,178,0.0,-999.0,94,-99.99,,,-99.99,,2013-05-27 11:32:00,
2013-05-27 07:42:00,61.0,59.0,30.25,South,178,0.0,-999.0,94,-99.99,,,-99.99,,2013-05-27 11:42:00,
2013-05-27 07:52:00,63.0,61.0,30.25,South,178,0.0,-999.0,93,-99.99,,,-99.99,,2013-05-27 11:52:00,
2013-05-27 08:01:00,66.0,62.0,30.25,South,178,0.0,-999.0,88,-99.99,,,-99.99,,2013-05-27 12:01:00,
2013-05-27 08:11:00,66.0,62.0,30.25,South,178,0.0,-999.0,88,-99.99,,,-99.99,,2013-05-27 12:11:00,
2013-05-27 08:22:00,67.0,60.0,30.26,South,178,0.0,-999.0,79,-99.99,,,-99.99,,2013-05-27 12:22:00,
2013-05-27 08:32:00,70.0,60.0,30.26,South,178,0.0,-999.0,70,-99.99,,,-99.99,,2013-05-27 12:32:00,
2013-05-27 08:42:00,70.0,60.0,30.26,South,178,0.0,-999.0,70,-99.99,,,-99.99,,2013-05-27 12:42:00,
2013-05-27 08:52:00,72.0,60.0,30.26,South,178,0.0,-999.0,66,-99.99,,,-99.99,,2013-05-27 12:52:00,
2013-05-27 09:01:00,72.0,58.0,30.26,South,178,0.0,-999.0,62,-99.99,,,-99.99,,2013-05-27 13:01:00,
2013-05-27 09:11:00,72.0,58.0,30.26,South,178,0.0,-999.0,62,-99.99,,,-99.99,,2013-05-27 13:11:00,
2013-05-27 09:22:00,72.0,58.0,30.26,SSE,157,3.0,-999.0,61,-99.99,,,-99.99,,2013-05-27 13:22:00,
2013-05-27 09:32:00,73.0,58.0,30.27,SSE,152,2.0,-999.0,59,-99.99,,,-99.99,,2013-05-27 13:32:00,
2013-05-27 09:42:00,73.0,58.0,30.27,SSE,152,2.0,-999.0,59,-99.99,,,-99.99,,2013-05-27 13:42:00,
2013-05-27 09:53:00,73.0,58.0,30.27,SSE,151,2.0,-999.0,59,-99.99,,,-99.99,,2013-05-27 13:53:00,
2013-05-27 10:02:00,74.0,58.0,30.26,SSE,150,2.0,-999.0,58,-99.99,,,-99.99,,2013-05-27 14:02:00,
2013-05-27 10:11:00,74.0,58.0,30.26,SSE,150,2.0,-999.0,58,-99.99,,,-99.99,,2013-05-27 14:11:00,
2013-05-27 10:22:00,74.0,58.0,30.26,SE,140,2.0,-999.0,57,-99.99,,,-99.99,,2013-05-27 14:22:00,
2013-05-27 10:32:00,74.0,57.0,30.26,SSE,151,2.0,-999.0,56,-99.99,,,-99.99,,2013-05-27 14:32:00,
2013-05-27 10:42:00,75.0,57.0,30.26,SE,141,1.0,-999.0,54,-99.99,,,-99.99,,2013-05-27 14:42:00,
2013-05-27 10:52:00,75.0,57.0,30.26,SE,141,1.0,-999.0,54,-99.99,,,-99.99,,2013-05-27 14:52:00,
2013-05-27 11:01:00,75.0,58.0,30.26,SE,145,2.0,-999.0,55,-99.99,,,-99.99,,2013-05-27 15:01:00,
2013-05-27 11:11:00,75.0,59.0,30.27,SE,141,1.0,-999.0,57,-99.99,,,-99.99,,2013-05-27 15:11:00,
2013-05-27 11:21:00,75.0,59.0,30.27,SE,141,1.0,-999.0,57,-99.99,,,-99.99,,2013-05-27 15:21:00,
2013-05-27 11:33:00,75.0,59.0,30.27,SE,141,1.0,-999.0,57,-99.99,,,-99.99,,2013-05-27 15:33:00,
2013-05-27 11:43:00,76.0,58.0,30.27,SE,140,1.0,-999.0,54,-99.99,,,-99.99,,2013-05-27 15:43:00,
2013-05-27 11:53:00,76.0,58.0,30.27,SE,140,1.0,-999.0,54,-99.99,,,-99.99,,2013-05-27 15:53:00,
2013-05-27 12:03:00,75.0,57.0,30.27,ESE,121,2.0,-999.0,54,-99.99,,,-99.99,,2013-05-27 16:03:00,
2013-05-27 12:12:00,76.0,60.0,30.26,ESE,117,1.0,-999.0,57,-99.99,,,-99.99,,2013-05-27 16:12:00,
2013-05-27 12:23:00,76.0,60.0,30.26,ESE,117,1.0,-999.0,57,-99.99,,,-99.99,,2013-05-27 16:23:00,
2013-05-27 12:33:00,76.0,59.0,30.26,SE,140,2.0,-999.0,56,-99.99,,,-99.99,,2013-05-27 16:33:00,
2013-05-27 12:42:00,76.0,59.0,30.26,SE,140,2.0,-999.0,56,-99.99,,,-99.99,,2013-05-27 16:42:00,
2013-05-27 12:53:00,75.0,58.0,30.26,SE,138,2.0,-999.0,56,-99.99,,,-99.99,,2013-05-27 16:53:00,
2013-05-27 13:02:00,76.0,59.0,30.26,SSE,157,3.0,-999.0,56,-99.99,,,-99.99,,2013-05-27 17:02:00,
2013-05-27 13:12:00,76.0,59.0,30.25,SSE,148,4.0,-999.0,56,-99.99,,,-99.99,,2013-05-27 17:12:00,
2013-05-27 13:22:00,76.0,59.0,30.25,SSE,148,4.0,-999.0,56,-99.99,,,-99.99,,2013-05-27 17:22:00,
2013-05-27 13:32:00,75.0,57.0,30.25,SE,134,3.0,-999.0,54,-99.99,,,-99.99,,2013-05-27 17:32:00,
2013-05-27 13:43:00,75.0,57.0,30.25,SE,134,3.0,-999.0,54,-99.99,,,-99.99,,2013-05-27 17:43:00,
2013-05-27 13:52:00,76.0,59.0,30.24,East,100,3.0,-999.0,56,-99.99,,,-99.99,,2013-05-27 17:52:00,
2013-05-27 14:02:00,75.0,58.0,30.24,SSE,167,5.0,-999.0,56,-99.99,,,-99.99,,2013-05-27 18:02:00,
2013-05-27 14:11:00,76.0,59.0,30.24,SE,136,2.0,-999.0,56,-99.99,,,-99.99,,2013-05-27 18:11:00,
2013-05-27 14:22:00,76.0,59.0,30.24,SE,136,2.0,-999.0,56,-99.99,,,-99.99,,2013-05-27 18:22:00,
2013-05-27 14:32:00,76.0,59.0,30.24,South,179,3.0,-999.0,56,-99.99,,,-99.99,,2013-05-27 18:32:00,
2013-05-27 14:42:00,76.0,59.0,30.24,South,179,3.0,-999.0,56,-99.99,,,-99.99,,2013-05-27 18:42:00,
2013-05-27 14:52:00,76.0,59.0,30.24,SE,143,2.0,-999.0,56,-99.99,,,-99.99,,2013-05-27 18:52:00,
2013-05-27 15:01:00,76.0,59.0,30.24,SSE,168,3.0,-999.0,56,-99.99,,,-99.99,,2013-05-27 19:01:00,
2013-05-27 15:11:00,76.0,59.0,30.24,SSE,168,3.0,-999.0,56,-99.99,,,-99.99,,2013-05-27 19:11:00,
2013-05-27 15:21:00,76.0,59.0,30.24,SE,124,3.0,-999.0,56,-99.99,,,-99.99,,2013-05-27 19:21:00,
2013-05-27 15:32:00,76.0,59.0,30.24,SSE,154,3.0,-999.0,55,-99.99,,,-99.99,,2013-05-27 19:32:00,
2013-05-27 15:42:00,76.0,59.0,30.24,SSE,154,3.0,-999.0,55,-99.99,,,-99.99,,2013-05-27 19:42:00,
2013-05-27 15:52:00,76.0,59.0,30.24,South,169,4.0,-999.0,56,-99.99,,,-99.99,,2013-05-27 19:52:00,
2013-05-27 16:01:00,76.0,59.0,30.23,SSE,164,2.0,-999.0,56,-99.99,,,-99.99,,2013-05-27 20:01:00,
2013-05-27 16:11:00,76.0,59.0,30.23,SSE,164,2.0,-999.0,56,-99.99,,,-99.99,,2013-05-27 20:11:00,
2013-05-27 16:22:00,76.0,59.0,30.23,SE,130,3.0,-999.0,56,-99.99,,,-99.99,,2013-05-27 20:22:00,
2013-05-27 16:32:00,76.0,61.0,30.22,SSE,147,3.0,-999.0,59,-99.99,,,-99.99,,2013-05-27 20:32:00,
2013-05-27 16:42:00,76.0,60.0,30.22,SE,136,3.0,-999.0,58,-99.99,,,-99.99,,2013-05-27 20:42:00,
2013-05-27 16:53:00,76.0,60.0,30.22,SE,136,3.0,-999.0,58,-99.99,,,-99.99,,2013-05-27 20:53:00,
2013-05-27 17:01:00,76.0,60.0,30.22,SSE,147,2.0,-999.0,57,-99.99,,,-99.99,,2013-05-27 21:01:00,
2013-05-27 17:12:00,76.0,61.0,30.22,SSE,160,3.0,-999.0,59,-99.99,,,-99.99,,2013-05-27 21:12:00,
2013-05-27 17:21:00,76.0,61.0,30.22,SSE,160,3.0,-999.0,59,-99.99,,,-99.99,,2013-05-27 21:21:00,
2013-05-27 17:33:00,75.0,60.0,30.21,SE,137,4.0,-999.0,59,-99.99,,,-99.99,,2013-05-27 21:33:00,
2013-05-27 17:43:00,75.0,60.0,30.21,South,169,3.0,-999.0,60,-99.99,,,-99.99,,2013-05-27 21:43:00,
2013-05-27 17:53:00,75.0,60.0,30.21,South,169,3.0,-999.0,60,-99.99,,,-99.99,,2013-05-27 21:53:00,
2013-05-27 18:02:00,74.0,60.0,30.20,ESE,114,3.0,-999.0,62,-99.99,,,-99.99,,2013-05-27 22:02:00,
2013-05-27 18:12:00,74.0,60.0,30.20,SE,137,3.0,-999.0,62,-99.99,,,-99.99,,2013-05-27 22:12:00,
2013-05-27 18:22:00,74.0,60.0,30.20,SE,137,3.0,-999.0,62,-99.99,,,-99.99,,2013-05-27 22:22:00,
2013-05-27 18:33:00,74.0,60.0,30.19,SSE,155,3.0,-999.0,62,-99.99,,,-99.99,,2013-05-27 22:33:00,
2013-05-27 18:42:00,74.0,61.0,30.19,SSE,155,3.0,-999.0,63,-99.99,,,-99.99,,2013-05-27 22:42:00,
2013-05-27 18:52:00,74.0,61.0,30.19,SSE,155,3.0,-999.0,63,-99.99,,,-99.99,,2013-05-27 22:52:00,
2013-05-27 19:02:00,74.0,61.0,30.20,SE,130,3.0,-999.0,63,-99.99,,,-99.99,,2013-05-27 23:02:00,
2013-05-27 19:12:00,74.0,61.0,30.20,SE,140,3.0,-999.0,64,-99.99,,,-99.99,,2013-05-27 23:12:00,
2013-05-27 19:22:00,74.0,61.0,30.20,SE,140,3.0,-999.0,64,-99.99,,,-99.99,,2013-05-27 23:22:00,
2013-05-27 19:32:00,73.0,61.0,30.20,South,174,2.0,-999.0,65,-99.99,,,-99.99,,2013-05-27 23:32:00,
2013-05-27 19:42:00,73.0,61.0,30.20,South,174,2.0,-999.0,65,-99.99,,,-99.99,,2013-05-27 23:42:00,
2013-05-27 19:52:00,73.0,61.0,30.21,SSE,158,1.0,-999.0,66,-99.99,,,-99.99,,2013-05-27 23:52:00,
2013-05-27 20:01:00,72.0,60.0,30.21,SE,144,2.0,-999.0,67,-99.99,,,-99.99,,2013-05-28 00:01:00,
2013-05-27 20:11:00,72.0,60.0,30.21,SE,144,2.0,-999.0,67,-99.99,,,-99.99,,2013-05-28 00:11:00,
2013-05-27 20:21:00,72.0,60.0,30.21,SE,144,2.0,-999.0,67,-99.99,,,-99.99,,2013-05-28 00:21:00,
2013-05-27 20:32:00,72.0,61.0,30.21,SE,145,1.0,-999.0,69,-99.99,,,-99.99,,2013-05-28 00:32:00,
2013-05-27 20:42:00,72.0,62.0,30.21,SSE,147,0.0,-999.0,71,-99.99,,,-99.99,,2013-05-28 00:42:00,
2013-05-27 20:52:00,72.0,62.0,30.21,SSE,147,0.0,-999.0,71,-99.99,,,-99.99,,2013-05-28 00:52:00,
2013-05-27 21:01:00,71.0,61.0,30.22,SSE,147,0.0,-999.0,71,-99.99,,,-99.99,,2013-05-28 01:01:00,
2013-05-27 21:11:00,71.0,61.0,30.22,SSE,147,0.0,-999.0,71,-99.99,,,-99.99,,2013-05-28 01:11:00,
2013-05-27 21:22:00,71.0,62.0,30.22,SSE,147,0.0,-999.0,72,-99.99,,,-99.99,,2013-05-28 01:22:00,
2013-05-27 21:32:00,70.0,61.0,30.21,SSE,147,0.0,-999.0,74,-99.99,,,-99.99,,2013-05-28 01:32:00,
2013-05-27 21:42:00,70.0,61.0,30.21,SSE,147,0.0,-999.0,74,-99.99,,,-99.99,,2013-05-28 01:42:00,
2013-05-27 21:52:00,70.0,62.0,30.22,SSE,147,0.0,-999.0,76,-99.99,,,-99.99,,2013-05-28 01:52:00,
2013-05-27 22:02:00,70.0,62.0,30.22,SSE,147,0.0,-999.0,76,-99.99,,,-99.99,,2013-05-28 02:02:00,
2013-05-27 22:11:00,70.0,62.0,30.22,SSE,147,0.0,-999.0,76,-99.99,,,-99.99,,2013-05-28 02:11:00,
2013-05-27 22:22:00,69.0,61.0,30.22,SSE,147,0.0,-999.0,77,-99.99,,,-99.99,,2013-05-28 02:22:00,
2013-05-27 22:32:00,69.0,62.0,30.23,SSE,147,0.0,-999.0,79,-99.99,,,-99.99,,2013-05-28 02:32:00,
2013-05-27 22:42:00,69.0,62.0,30.23,SSE,147,0.0,-999.0,79,-99.99,,,-99.99,,2013-05-28 02:42:00,
2013-05-27 22:52:00,69.0,63.0,30.23,SSE,147,0.0,-999.0,80,-99.99,,,-99.99,,2013-05-28 02:52:00,
2013-05-27 23:01:00,69.0,63.0,30.24,SSE,147,0.0,-999.0,80,-99.99,,,-99.99,,2013-05-28 03:01:00,
2013-05-27 23:11:00,69.0,63.0,30.24,SSE,147,0.0,-999.0,80,-99.99,,,-99.99,,2013-05-28 03:11:00,
2013-05-27 23:21:00,69.0,63.0,30.24,SSE,147,0.0,-999.0,81,-99.99,,,-99.99,,2013-05-28 03:21:00,
2013-05-27 23:33:00,69.0,63.0,30.24,SSE,147,0.0,-999.0,81,-99.99,,,-99.99,,2013-05-28 03:33:00,
2013-05-27 23:43:00,69.0,63.0,30.24,SSE,147,0.0,-999.0,81,-99.99,,,-99.99,,2013-05-28 03:43:00,
2013-05-27 23:53:00,69.0,63.0,30.23,SSE,147,0.0,-999.0,81,-99.99,,,-99.99,,2013-05-28 03:53:00,